Wind_Speed
44 38 36 30 23 26 34 39 26 6 6 15 9 20 19 14 14 12 10 8 9 9 11 12 13 13 13 14 15 15 17 16 16 17 19 19 19 20
31 31 31 27 22 27 37 35 22 18 4 18 16 27 22 18 16 13 10 9 8 8 10 12 12 12 13 14 15 16 16 15 16 17 19 18 18 18
28 30 27 28 24 26 33 30 19 20 13 14 26 29 25 23 19 16 11 9 10 8 11 12 11 13 13 15 17 16 14 14 15 17 19 19 17 18
25 29 28 25 24 22 26 19 16 25 26 24 28 30 28 24 21 18 15 11 8 8 10 11 10 11 13 15 15 13 12 13 15 17 19 19 17 18
31 31 28 25 20 22 24 24 17 24 32 27 23 31 27 25 24 19 18 16 11 9 7 7 7 8 11 15 12 11 10 12 14 17 18 19 17 16
37 32 32 29 27 28 26 29 24 31 32 30 27 29 30 27 25 25 25 18 14 8 7 6 5 6 8 10 11 8 9 11 14 16 17 18 16 15
35 35 28 24 25 27 33 28 29 33 31 28 24 24 27 29 29 27 27 24 18 12 12 11 8 11 7 4 7 7 8 10 12 14 16 17 16 15
37 28 27 25 28 31 29 28 28 37 30 26 23 25 29 30 29 30 28 22 6 12 12 13 10 13 7 4 5 6 6 9 11 13 14 15 16 14
32 34 32 31 32 34 33 32 27 31 38 39 36 34 34 36 33 29 31 22 10 14 17 14 9 6 4 7 4 4 5 8 9 12 12 13 13 15
35 36 34 37 36 36 33 31 28 24 32 33 34 34 32 33 31 31 27 19 15 13 15 7 12 6 5 5 5 2 4 7 9 10 11 12 12 11
34 36 36 35 34 33 33 32 26 21 21 25 26 29 27 29 26 25 24 24 6 10 10 9 11 6 6 7 7 2 3 4 7 8 10 12 12 13
33 34 34 38 34 35 35 34 29 26 26 25 25 25 26 25 23 23 25 24 11 6 13 10 12 6 4 10 4 3 1 5 9 6 9 14 11 13
32 32 33 34 35 34 34 36 38 34 28 26 26 24 25 26 24 22 21 19 18 6 15 13 12 9 4 5 3 4 3 5 5 7 11 16 12 12
30 31 34 33 33 31 31 32 32 33 29 27 27 26 26 25 22 19 18 15 14 10 15 14 9 12 9 5 5 3 4 5 4 9 14 14 7 12
33 36 36 32 31 27 26 27 27 30 30 27 24 27 26 24 20 17 15 13 11 10 9 12 11 13 11 8 4 0 3 2 7 12 15 11 11 14
34 32 35 35 35 26 25 27 26 31 31 27 22 24 24 23 19 17 17 15 15 14 11 8 8 10 13 10 5 2 2 1 9 12 14 10 10 9
31 32 33 32 31 29 31 31 29 29 25 22 25 29 28 25 20 18 17 17 12 15 14 11 8 8 7 8 7 5 2 3 8 12 14 16 14 12
33 32 31 28 30 30 30 29 29 30 27 27 28 32 30 28 22 20 17 18 16 14 15 15 13 10 6 7 10 8 5 4 9 11 13 16 19 16
29 27 27 28 28 28 29 29 26 28 29 25 27 30 29 24 24 20 19 19 17 13 16 16 16 12 5 2 6 10 6 5 7 11 12 12 15 19
27 26 26 27 27 28 28 28 28 27 30 27 27 28 27 25 22 21 21 21 20 15 17 18 15 13 9 8 6 5 4 5 7 9 14 15 17 17
22 24 26 28 28 29 30 31 31 28 30 29 30 31 29 25 24 24 23 24 21 17 17 15 13 12 10 7 5 4 3 5 6 9 12 14 15 15
25 26 27 30 30 31 31 32 31 29 31 31 30 32 32 31 28 27 25 26 22 16 17 14 15 12 9 8 7 7 3 3 6 4 5 8 10 8
24 27 29 30 30 30 30 30 30 29 31 30 31 34 31 30 27 30 24 25 24 20 15 19 15 10 8 8 7 7 4 5 5 6 10 12 10 10
Wind_Direction
200 200 200 195 191 179 166 160 159 154 181 171 153 183 172 175 173 155 135 118 131 119 106 98 87 77 68 58 50 43 40 36 28 24 28 20 13 12
201 192 191 181 165 174 174 169 172 141 163 171 166 174 176 177 184 172 153 142 124 122 116 105 97 85 75 66 55 46 39 37 30 29 28 25 17 11
201 190 179 176 163 151 170 178 174 170 140 154 174 173 170 173 170 170 166 156 121 108 112 105 102 89 78 67 57 47 37 37 34 31 31 27 22 14
189 189 175 176 176 166 169 161 179 189 157 143 156 169 170 178 172 172 171 157 128 118 105 104 99 100 84 72 62 50 38 34 34 35 30 28 23 16
195 184 175 177 172 199 206 197 190 186 174 156 161 170 170 168 171 181 179 166 150 136 119 106 112 105 74 58 49 48 38 34 36 35 29 24 22 17
189 190 187 191 196 200 207 201 179 173 165 151 152 166 163 170 173 166 177 170 160 164 168 143 149 133 93 59 34 42 42 32 36 36 30 22 19 17
188 193 200 200 212 214 200 193 182 169 159 151 155 166 169 174 179 184 171 165 165 173 179 187 172 170 134 42 9 36 29 31 36 35 31 23 17 13
189 195 207 203 201 196 198 197 190 176 164 157 168 172 180 178 186 187 173 163 171 186 165 166 185 181 212 272 319 30 31 25 34 35 30 22 17 11
196 198 186 192 197 191 194 195 190 192 189 182 175 182 180 188 181 177 185 180 175 164 171 159 179 183 223 279 268 28 48 23 28 28 26 18 14 14
200 194 189 190 192 190 186 185 188 183 193 192 194 188 192 190 195 192 184 171 159 167 177 156 185 188 220 258 223 20 42 21 21 22 18 10 4 3
196 195 194 193 196 194 185 174 169 167 181 189 189 185 188 190 192 184 176 165 151 172 170 155 169 180 210 227 207 230 40 26 17 16 10 2 357 350
188 197 201 203 198 199 194 182 165 166 170 164 167 176 182 181 180 193 187 177 150 153 186 154 160 180 164 218 199 180 48 16 6 16 8 360 355 351
180 180 191 201 197 193 197 191 187 180 177 173 170 171 173 174 176 183 188 197 177 128 175 165 164 172 162 169 163 131 114 15 11 2 347 352 357 349
176 179 191 197 192 191 192 189 189 180 175 171 168 168 170 173 181 188 188 191 191 202 175 182 158 181 171 164 137 140 65 8 328 346 344 351 5 7
181 185 190 187 180 176 185 188 185 181 175 170 172 172 178 177 179 181 180 175 166 158 168 183 195 182 185 162 128 14 46 337 322 329 337 356 359 0
182 179 183 179 177 181 172 187 187 182 181 177 178 181 174 181 181 182 171 163 160 155 157 154 178 193 187 174 174 181 91 12 312 322 334 341 342 344
168 163 170 178 180 172 166 175 183 180 182 180 180 181 182 184 182 175 170 164 173 173 178 179 165 149 158 171 191 167 205 300 307 323 335 335 342 340
168 170 177 179 178 170 168 169 174 180 184 185 187 183 183 186 183 182 182 188 188 187 196 193 184 194 217 244 238 231 230 293 309 328 344 342 336 349
176 178 177 176 176 176 172 172 171 180 186 190 190 188 190 191 181 185 189 193 202 199 190 187 186 193 165 166 166 211 219 290 297 323 342 343 328 341
183 179 179 178 176 175 173 172 175 182 191 194 189 193 196 186 181 188 188 194 198 193 182 179 190 198 189 174 147 180 262 247 295 315 331 332 328 335
183 181 179 176 173 174 179 184 188 190 194 195 195 195 202 192 191 191 193 197 199 189 179 182 194 200 185 178 155 227 227 283 282 311 327 334 333 327
185 183 179 179 180 181 185 188 192 197 194 197 198 201 205 203 202 198 197 193 195 193 188 193 177 178 175 174 201 176 247 275 307 279 312 332 333 319
184 183 182 184 186 187 187 187 191 195 197 199 198 202 202 202 203 201 200 196 191 189 177 173 174 180 180 188 209 220 212 261 309 317 321 329 326 328
Height
774 779 787 793 795 798 801 808 816 832 841 843 844 847 849 854 857 858 860 862 862 861 862 862 861 861 861 861 861 861 857 855 857 856 850 850 850 848
784 781 786 792 794 795 797 803 811 816 832 837 839 843 849 853 854 855 858 861 861 859 860 861 861 861 859 859 859 860 859 857 858 854 851 849 850 849
784 784 788 790 793 797 799 804 810 813 821 832 836 841 848 849 851 854 858 861 860 861 860 859 863 860 861 858 858 861 863 859 857 854 849 849 850 850
784 786 786 787 792 794 798 802 810 812 814 825 833 838 842 846 849 851 857 861 861 862 861 860 862 861 858 854 855 862 864 862 858 853 850 849 850 850
784 783 782 784 790 800 802 801 804 808 811 814 827 836 839 845 848 850 853 856 858 857 862 862 864 863 860 856 858 864 865 862 856 852 851 850 850 850
775 777 779 778 784 794 797 801 802 806 809 815 825 834 834 844 846 848 852 855 856 857 857 857 860 863 857 858 863 865 862 862 856 852 851 851 851 851
767 774 776 776 785 790 796 798 800 801 806 812 821 830 831 835 841 846 849 852 854 856 856 857 856 859 857 858 862 863 864 860 856 853 851 851 852 852
759 765 771 777 783 786 792 797 797 798 802 808 815 820 823 826 836 841 842 846 852 851 854 855 857 856 857 861 862 861 862 860 856 853 852 852 852 852
759 763 768 773 777 780 785 792 795 798 798 799 805 811 818 823 831 837 838 838 844 844 851 853 854 855 857 862 863 860 858 860 856 854 852 853 853 852
757 760 766 768 771 776 782 788 790 794 797 800 803 807 815 824 829 831 835 837 841 843 845 848 850 852 856 860 863 859 858 859 857 855 853 853 853 852
752 757 763 766 771 777 781 782 785 790 797 800 803 809 816 822 826 828 832 835 839 839 841 841 847 851 853 858 860 858 858 856 855 855 854 852 851 850
749 756 758 764 768 776 778 780 783 789 793 797 801 808 814 819 824 826 830 830 832 835 836 839 843 849 849 857 859 856 856 856 855 853 853 851 850 849
743 750 755 762 766 770 775 777 780 786 793 797 800 808 813 815 820 824 826 829 827 829 833 836 839 846 847 852 853 856 855 855 855 852 851 849 848 848
739 745 751 759 764 770 774 776 781 785 792 798 802 807 811 813 818 822 822 824 825 827 833 836 835 840 844 848 848 853 851 852 854 852 849 848 847 846
734 740 748 758 764 769 771 778 780 788 793 800 802 801 808 815 817 820 822 821 824 829 831 833 834 835 839 842 844 848 846 849 851 849 847 846 845 844
731 737 747 752 761 767 770 775 779 782 791 794 801 808 806 813 814 817 819 819 824 826 831 834 833 834 835 838 842 844 845 847 850 848 845 843 842 842
730 734 746 752 758 760 764 770 776 781 791 795 797 803 807 811 813 812 816 818 822 824 828 832 834 834 835 837 840 839 843 845 848 846 842 840 839 838
725 729 738 745 751 751 757 765 772 778 785 790 794 797 802 806 809 810 813 817 820 821 825 829 830 832 833 835 837 837 840 842 845 844 841 838 835 834
720 727 733 739 743 749 754 761 767 775 780 785 791 794 798 801 803 807 811 815 817 818 823 825 827 829 830 832 832 835 838 840 842 842 839 837 835 832
718 723 728 733 739 745 751 758 764 770 776 782 785 792 796 796 799 804 806 810 814 816 818 819 823 826 826 828 829 833 835 836 839 838 836 833 832 829
715 720 724 729 735 742 748 753 758 764 771 777 779 783 791 794 796 799 799 807 811 812 813 816 819 822 823 825 827 831 834 835 835 835 833 831 828 825
711 716 721 726 731 736 742 747 754 761 766 771 772 777 785 788 791 793 799 803 807 808 811 815 817 819 820 821 824 827 829 832 833 832 831 830 828 825
709 713 718 723 727 732 737 742 749 753 759 764 768 772 777 781 787 792 795 799 802 805 808 812 815 817 817 819 823 825 826 828 828 828 827 826 825 823